Lozovatka current weather conditions

sailwx.info

Wind from 320 at 5 knots

Air temperature 1.0° C
Visibility: greater than 5.4 NM
Dewpoint -2.0° C

Last reported at 2020-Jan-26 07:30 UTC.
Time now 2020-Jan-26 08:33 UTC

Location: N 48°03' E 033°13'.
View on Google Maps.

See reports from other nearby stations

  
Tides and Currents Weather Stations Pressure Air Temp Water Temp Dewpoint Dewpoint Depression Visibility Wind Speed Wind Dir Waves Ship Positions
date/time (UTC)wind fromknots sea level pressurealtimeterstation pressurevisibilityair tempwater tempwave heightnotes
2020-Jan-26 07:30 320 5 5.4 1.0
2020-Jan-26 07:00 320 5 5.4-0.0
2020-Jan-26 06:30 310 3 5.4-0.0
2020-Jan-26 06:00 290 1 5.4-0.0
2020-Jan-26 05:30 320 5 4.9-1.0
2020-Jan-26 05:00 320 7 4.9-1.0
2020-Jan-26 04:30 310 5 4.9-1.0
2020-Jan-26 04:00 300 7 3.8-1.0
2020-Jan-26 03:30 300 5 3.2-2.0
2020-Jan-26 03:00 280 5 3.2-3.0
2020-Jan-26 02:30 280 5 3.2-3.0
2020-Jan-26 02:00 280 5 3.2-2.0
2020-Jan-26 01:30 290 5 3.2-2.0
2020-Jan-26 01:00 280 5 4.3-1.0
2020-Jan-26 00:30 290 3 4.3-1.0
2020-Jan-26 00:00 310 5 4.3-1.0
2020-Jan-25 23:30 320 5 4.9-1.0
2020-Jan-25 23:00 330 5 4.3-0.0
2020-Jan-25 22:30 320 1 4.3-0.0
2020-Jan-25 22:00 250 3 3.8-1.0
2020-Jan-25 21:30 310 3 4.9-1.0
2020-Jan-25 21:00 320 7 5.4 1.0
2020-Jan-25 20:30 320 5 5.4 1.0
2020-Jan-25 20:00 350 9 5.4-0.0
2020-Jan-25 19:30 320 11 5.4 1.0
2020-Jan-25 19:00 300 9 5.4-1.0
2020-Jan-25 18:30 300 3 5.4-1.0
2020-Jan-25 18:00 300 1 5.4-0.0
2020-Jan-25 17:30 5.4 1.0
2020-Jan-25 17:00 340 1 5.4 1.0
2020-Jan-25 16:30 5.4 1.0
2020-Jan-25 16:00 5.4 1.0
2020-Jan-25 15:30 290 3 5.4 1.0
2020-Jan-25 15:00 290 5 5.4 2.0
2020-Jan-25 14:30 300 7 5.4 4.0
2020-Jan-25 14:00 320 5 5.4 5.0
2020-Jan-25 13:30 320 9 5.4 5.0
2020-Jan-25 13:00 310 13 5.4 6.0
2020-Jan-25 12:30 310 11 5.4 6.0
2020-Jan-25 12:00 300 15 5.4 6.0
2020-Jan-25 11:30 290 13 5.4 6.0
2020-Jan-25 11:00 280 13 5.4 6.0
2020-Jan-25 10:30 280 13 5.4 5.0
2020-Jan-25 10:00 280 13 5.4 5.0
2020-Jan-25 09:30 270 13 5.4 4.0
2020-Jan-25 09:00 280 11 5.4 3.0
2020-Jan-25 08:30 280 11 5.4 3.0
2020-Jan-25 08:00 280 9 5.4 1.0
2020-Jan-25 07:30 280 7 5.4-0.0
2020-Jan-25 07:00 270 9 5.4-2.0
2020-Jan-25 06:30 270 5 5.4-3.0
2020-Jan-25 06:00 240 5 5.4-5.0
2020-Jan-25 05:30 250 7 5.4-4.0
2020-Jan-25 05:00 260 5 5.4-4.0
2020-Jan-25 04:30 250 9 5.4-4.0
2020-Jan-25 04:00 230 7 5.4-4.0
2020-Jan-25 03:30 240 7 5.4-3.0
2020-Jan-25 03:00 250 5 5.4-3.0
2020-Jan-25 02:30 260 9 5.4-3.0
2020-Jan-25 02:00 260 9 5.4-2.0
2020-Jan-25 01:30 260 9 5.4-2.0
2020-Jan-25 01:00 260 9 5.4-1.0
2020-Jan-25 00:30 260 11 5.4-1.0
2020-Jan-25 00:00 260 13 5.4-1.0
2020-Jan-24 23:30 250 11 5.4-1.0
2020-Jan-24 23:00 260 13 5.4-0.0
2020-Jan-24 22:30 260 11 5.4-0.0
2020-Jan-24 22:00 250 11 5.4-0.0
2020-Jan-24 21:30 250 11 5.4-0.0
2020-Jan-24 21:00 250 9 5.4-0.0
2020-Jan-24 20:30 240 7 5.4-0.0
2020-Jan-24 20:00 250 11 5.4-0.0
2020-Jan-24 19:30 250 7 5.4-0.0
2020-Jan-24 19:00 250 7 5.4-0.0
2020-Jan-24 18:30 250 11 5.4 1.0
2020-Jan-24 18:00 250 9 5.4 1.0
2020-Jan-24 17:30 250 9 5.4 1.0
2020-Jan-24 17:00 240 7 5.4 1.0
2020-Jan-24 16:30 240 7 5.4 1.0
2020-Jan-24 16:00 230 5 5.4 1.0
2020-Jan-24 15:30 250 3 5.4-1.0
2020-Jan-24 15:00 260 5 5.4-1.0
2020-Jan-24 14:30 290 7 5.4 1.0
2020-Jan-24 14:00 300 9 5.4 1.0
2020-Jan-24 13:30 300 11 5.4 2.0
2020-Jan-24 13:00 290 17 5.4 3.0
2020-Jan-24 12:30 270 17 5.4 5.0
2020-Jan-24 12:00 260 19 5.4 5.0
2020-Jan-24 11:30 260 17 5.4 4.0
2020-Jan-24 11:00 260 15 5.4 4.0
2020-Jan-24 10:30 250 17 5.4 3.0
2020-Jan-24 10:00 260 17 5.4 3.0
2020-Jan-24 09:30 240 11 5.4 3.0
2020-Jan-24 09:00 250 9 5.4 2.0
2020-Jan-24 08:30 260 9 5.4-0.0
2020-Jan-24 08:00 260 7 5.4-0.0